When you browse on this site, cookies collect data to enhance your experience and personalize the content and advertising you see.
Visit our Privacy Policy to learn more. By continuing to use the site, you agree to this use of cookies and data.
  • In Spain
  • List of Countries
  • For 7 days
  • Water Temperature
  • Weather Map
  • Weather Widgets
  • user-avatar
    Login

    Hourly Weather Lezhe

    Today, 21 September, Saturday

    Time Temperature Precipitation Wind Pressure Humidity
    00:00 +12°C° 0 mm 5 mps 742 mmHg 43%
    01:00 +12°C° 0 mm 5 mps 742 mmHg 46%
    02:00 +10°C° 0 mm 5 mps 742 mmHg 48%
    03:00 +10°C° 0 mm 5 mps 742 mmHg 49%
    04:00 +10°C° 0 mm 4 mps 742 mmHg 51%
    05:00 +11°C° 0 mm 4 mps 742 mmHg 48%
    06:00 +12°C° 0 mm 4 mps 743 mmHg 46%
    07:00 +13°C° 0 mm 5 mps 743 mmHg 42%
    08:00 +15°C° 0 mm 4 mps 743 mmHg 37%
    09:00 +19°C° 0 mm 4 mps 743 mmHg 31%
    10:00 +21°C° 0 mm 3 mps 743 mmHg 26%
    11:00 +22°C° 0 mm 3 mps 743 mmHg 24%
    12:00 +24°C° 0 mm 2 mps 742 mmHg 22%
    13:00 +26°C° 0 mm 2 mps 743 mmHg 21%
    14:00 +25°C° 0 mm 2 mps 742 mmHg 22%
    15:00 +25°C° 0 mm 3 mps 742 mmHg 23%
    16:00 +25°C° 0 mm 3 mps 742 mmHg 24%
    17:00 +21°C° 0 mm 3 mps 742 mmHg 28%
    18:00 +19°C° 0 mm 2 mps 742 mmHg 31%
    19:00 +16°C° 0 mm 2 mps 742 mmHg 34%
    20:00 +16°C° 0 mm 2 mps 742 mmHg 34%
    21:00 +16°C° 0 mm 2 mps 742 mmHg 34%
    22:00 +15°C° 0 mm 2 mps 742 mmHg 34%
    23:00 +15°C° 0 mm 2 mps 742 mmHg 35%

    Tomorrow, 22 September, Sunday

    Time Temperature Precipitation Wind Pressure Humidity
    00:00 +15°C° 0 mm 2 mps 742 mmHg 36%
    01:00 +15°C° 0 mm 2 mps 742 mmHg 37%
    02:00 +14°C° 0 mm 2 mps 742 mmHg 38%
    03:00 +14°C° 0 mm 2 mps 742 mmHg 40%
    04:00 +14°C° 0 mm 2 mps 742 mmHg 41%
    05:00 +15°C° 0 mm 2 mps 742 mmHg 40%
    06:00 +16°C° 0 mm 1 mps 741 mmHg 40%
    07:00 +19°C° 0 mm 1 mps 741 mmHg 39%
    08:00 +21°C° 0 mm 1 mps 741 mmHg 35%
    09:00 +23°C° 0 mm 1 mps 741 mmHg 32%
    10:00 +26°C° 0 mm 1 mps 741 mmHg 28%
    11:00 +26°C° 0 mm 2 mps 741 mmHg 28%
    12:00 +26°C° 0 mm 2 mps 741 mmHg 28%
    13:00 +27°C° 0 mm 2 mps 740 mmHg 29%
    14:00 +26°C° 0 mm 2 mps 740 mmHg 32%
    15:00 +25°C° 0 mm 2 mps 739 mmHg 34%
    16:00 +25°C° 0 mm 1 mps 739 mmHg 37%
    17:00 +22°C° 0 mm 1 mps 739 mmHg 44%
    18:00 +20°C° 0 mm 1 mps 739 mmHg 51%
    19:00 +18°C° 0 mm 1 mps 739 mmHg 58%
    20:00 +18°C° 0 mm 1 mps 739 mmHg 59%
    21:00 +18°C° 0 mm 1 mps 739 mmHg 60%
    22:00 +18°C° 0 mm 1 mps 739 mmHg 61%
    23:00 +18°C° 0 mm 1 mps 739 mmHg 63%

    Day after tomorrow, 23 September, Monday

    Time Temperature Precipitation Wind Pressure Humidity
    00:00 +16°C° 0 mm 1 mps 739 mmHg 64%
    01:00 +16°C° 0 mm 1 mps 739 mmHg 66%
    02:00 +16°C° 0 mm 1 mps 739 mmHg 65%
    03:00 +16°C° 0 mm 1 mps 739 mmHg 63%
    04:00 +16°C° 0 mm 1 mps 738 mmHg 62%
    05:00 +18°C° 0 mm 1 mps 738 mmHg 57%
    06:00 +19°C° 0 mm 1 mps 738 mmHg 53%
    07:00 +20°C° 0 mm 1 mps 738 mmHg 49%
    08:00 +21°C° 0 mm 1 mps 738 mmHg 48%
    09:00 +21°C° 0 mm 1 mps 738 mmHg 48%
    10:00 +22°C° 0 mm 1 mps 738 mmHg 47%
    11:00 +22°C° 0.1 mm 1 mps 738 mmHg 47%
    12:00 +23°C° 0.1 mm 1 mps 737 mmHg 47%
    13:00 +24°C° 0.1 mm 1 mps 737 mmHg 47%
    14:00 +23°C° 0.1 mm 1 mps 737 mmHg 51%
    15:00 +23°C° 0.1 mm 1 mps 737 mmHg 55%
    16:00 +23°C° 0.1 mm 1 mps 736 mmHg 59%
    17:00 +22°C° 0 mm 1 mps 736 mmHg 62%
    18:00 +21°C° 0 mm 1 mps 736 mmHg 66%
    19:00 +20°C° 0 mm 1 mps 736 mmHg 70%
    20:00 +19°C° 0.2 mm 1 mps 736 mmHg 72%
    21:00 +18°C° 0.2 mm 2 mps 736 mmHg 75%
    22:00 +18°C° 0.2 mm 2 mps 736 mmHg 77%
    23:00 +18°C° 0.8 mm 2 mps 735 mmHg 79%

    24 September, Tuesday

    Time Temperature Precipitation Wind Pressure Humidity
    00:00 +18°C° 0.8 mm 2 mps 735 mmHg 81%
    01:00 +18°C° 0.8 mm 2 mps 735 mmHg 83%
    02:00 +18°C° 0.8 mm 2 mps 734 mmHg 85%
    03:00 +18°C° 0.8 mm 2 mps 734 mmHg 86%
    04:00 +19°C° 0.8 mm 2 mps 733 mmHg 87%
    05:00 +20°C° 0.9 mm 1 mps 733 mmHg 86%
    06:00 +20°C° 0.9 mm 1 mps 733 mmHg 85%
    07:00 +20°C° 0.9 mm 1 mps 733 mmHg 84%
    08:00 +22°C° 0.7 mm 1 mps 733 mmHg 80%
    09:00 +23°C° 0.7 mm 1 mps 733 mmHg 76%
    10:00 +24°C° 0.7 mm 1 mps 733 mmHg 72%
    11:00 +24°C° 0.9 mm 2 mps 733 mmHg 70%
    12:00 +25°C° 0.9 mm 2 mps 733 mmHg 68%
    13:00 +25°C° 0.9 mm 3 mps 733 mmHg 67%
    14:00 +25°C° 0.8 mm 2 mps 732 mmHg 67%
    15:00 +24°C° 0.8 mm 2 mps 732 mmHg 68%
    16:00 +24°C° 0.8 mm 2 mps 732 mmHg 69%
    17:00 +23°C° 0.3 mm 2 mps 732 mmHg 75%
    18:00 +20°C° 0.3 mm 2 mps 732 mmHg 81%
    19:00 +19°C° 0.3 mm 2 mps 733 mmHg 87%
    20:00 +18°C° 0.1 mm 2 mps 733 mmHg 88%
    21:00 +18°C° 0.1 mm 2 mps 733 mmHg 89%
    22:00 +19°C° 0.1 mm 1 mps 734 mmHg 90%
    23:00 +18°C° 0.1 mm 1 mps 733 mmHg 90%

    25 September, Wednesday

    Time Temperature Precipitation Wind Pressure Humidity
    00:00 +18°C° 0.1 mm 1 mps 733 mmHg 91%
    01:00 +18°C° 0.1 mm 1 mps 733 mmHg 91%
    02:00 +16°C° 0 mm 1 mps 733 mmHg 92%
    03:00 +16°C° 0 mm 1 mps 733 mmHg 92%
    04:00 +16°C° 0 mm 1 mps 733 mmHg 92%
    05:00 +18°C° 0 mm 1 mps 733 mmHg 89%
    06:00 +18°C° 0 mm 1 mps 733 mmHg 87%
    07:00 +19°C° 0 mm 1 mps 733 mmHg 84%
    08:00 +21°C° 0 mm 1 mps 733 mmHg 77%
    09:00 +22°C° 0 mm 1 mps 734 mmHg 70%
    10:00 +24°C° 0 mm 2 mps 734 mmHg 62%
    11:00 +24°C° 0 mm 2 mps 734 mmHg 61%
    12:00 +24°C° 0.1 mm 3 mps 734 mmHg 60%
    13:00 +25°C° 0.1 mm 3 mps 733 mmHg 59%
    14:00 +24°C° 0.1 mm 3 mps 733 mmHg 62%
    15:00 +23°C° 0.1 mm 2 mps 733 mmHg 65%
    16:00 +23°C° 0.1 mm 2 mps 733 mmHg 68%
    17:00 +20°C° 0 mm 2 mps 733 mmHg 75%
    18:00 +20°C° 0 mm 1 mps 734 mmHg 83%
    19:00 +18°C° 0 mm 1 mps 734 mmHg 90%
    20:00 +18°C° 0 mm 1 mps 734 mmHg 89%
    21:00 +18°C° 0 mm 1 mps 735 mmHg 89%
    22:00 +18°C° 0 mm 1 mps 735 mmHg 88%
    23:00 +18°C° 0 mm 1 mps 735 mmHg 88%

    26 September, Thursday

    Time Temperature Precipitation Wind Pressure Humidity
    00:00 +18°C° 0 mm 1 mps 735 mmHg 88%
    01:00 +16°C° 0 mm 1 mps 735 mmHg 89%
    02:00 +16°C° 0 mm 1 mps 735 mmHg 88%
    03:00 +16°C° 0 mm 1 mps 735 mmHg 87%
    04:00 +16°C° 0 mm 1 mps 735 mmHg 86%
    05:00 +18°C° 0 mm 1 mps 735 mmHg 81%
    06:00 +19°C° 0 mm 1 mps 735 mmHg 77%
    07:00 +19°C° 0 mm 1 mps 736 mmHg 72%
    08:00 +21°C° 0 mm 1 mps 736 mmHg 65%
    09:00 +23°C° 0 mm 1 mps 736 mmHg 58%
    10:00 +24°C° 0 mm 1 mps 737 mmHg 51%
    11:00 +25°C° 0 mm 1 mps 737 mmHg 49%
    12:00 +25°C° 0 mm 1 mps 736 mmHg 48%
    13:00 +26°C° 0 mm 2 mps 736 mmHg 46%
    14:00 +26°C° 0 mm 2 mps 736 mmHg 47%
    15:00 +25°C° 0 mm 2 mps 736 mmHg 49%
    16:00 +25°C° 0 mm 2 mps 736 mmHg 51%
    17:00 +23°C° 0 mm 2 mps 736 mmHg 58%
    18:00 +21°C° 0 mm 1 mps 737 mmHg 66%
    19:00 +20°C° 0 mm 1 mps 737 mmHg 73%
    20:00 +19°C° 0 mm 1 mps 737 mmHg 73%
    21:00 +19°C° 0 mm 1 mps 738 mmHg 72%
    22:00 +19°C° 0 mm 1 mps 738 mmHg 72%
    23:00 +19°C° 0 mm 1 mps 738 mmHg 72%
    Show more